When you browse on this site, cookies collect data to enhance your experience and personalize the content and advertising you see.
Visit our Privacy Policy to learn more. By continuing to use the site, you agree to this use of cookies and data.
  • In Switzerland
  • List of Countries
  • For 7 days
  • Water Temperature
  • Satellite Maps
  • Weather Map
  • Weather Widgets
  • user-avatar
    Login

    Hourly Weather Yerevan

    Today, 25 April, Thursday

    Time Temperature Precipitation Wind Pressure Humidity
    00:00 +9°C° 0 mm 1 mps 695 mmHg 48%
    01:00 +9°C° 0 mm 1 mps 695 mmHg 49%
    02:00 +8°C° 0 mm 1 mps 695 mmHg 50%
    03:00 +8°C° 0 mm 1 mps 695 mmHg 52%
    04:00 +8°C° 0 mm 1 mps 696 mmHg 52%
    05:00 +8°C° 0 mm 1 mps 696 mmHg 53%
    06:00 +8°C° 0 mm 1 mps 696 mmHg 54%
    07:00 +9°C° 0 mm 1 mps 696 mmHg 50%
    08:00 +10°C° 0 mm 2 mps 696 mmHg 46%
    09:00 +12°C° 0 mm 2 mps 696 mmHg 42%
    10:00 +13°C° 0 mm 2 mps 696 mmHg 39%
    11:00 +14°C° 0 mm 2 mps 695 mmHg 36%
    12:00 +15°C° 0 mm 1 mps 695 mmHg 33%
    13:00 +16°C° 0 mm 1 mps 695 mmHg 32%
    14:00 +16°C° 0 mm 2 mps 695 mmHg 30%
    15:00 +16°C° 0 mm 2 mps 694 mmHg 29%
    16:00 +16°C° 0 mm 1 mps 694 mmHg 30%
    17:00 +16°C° 0 mm 1 mps 694 mmHg 31%
    18:00 +15°C° 0 mm 1 mps 694 mmHg 32%
    19:00 +14°C° 0 mm 1 mps 695 mmHg 35%
    20:00 +12°C° 0 mm 1 mps 695 mmHg 39%
    21:00 +11°C° 0 mm 1 mps 695 mmHg 42%
    22:00 +10°C° 0 mm 1 mps 695 mmHg 44%
    23:00 +10°C° 0 mm 1 mps 696 mmHg 46%

    Tomorrow, 26 April, Friday

    Time Temperature Precipitation Wind Pressure Humidity
    00:00 +9°C° 0 mm 1 mps 696 mmHg 48%
    01:00 +9°C° 0 mm 1 mps 696 mmHg 49%
    02:00 +8°C° 0 mm 1 mps 696 mmHg 50%
    03:00 +8°C° 0 mm 1 mps 695 mmHg 52%
    04:00 +8°C° 0 mm 1 mps 696 mmHg 52%
    05:00 +8°C° 0 mm 1 mps 696 mmHg 52%
    06:00 +8°C° 0 mm 1 mps 696 mmHg 52%
    07:00 +10°C° 0 mm 1 mps 695 mmHg 47%
    08:00 +11°C° 0 mm 1 mps 695 mmHg 41%
    09:00 +13°C° 0 mm 1 mps 695 mmHg 35%
    10:00 +14°C° 0 mm 1 mps 694 mmHg 33%
    11:00 +15°C° 0 mm 2 mps 694 mmHg 31%
    12:00 +16°C° 0 mm 2 mps 694 mmHg 28%
    13:00 +17°C° 0 mm 2 mps 694 mmHg 27%
    14:00 +17°C° 0 mm 2 mps 693 mmHg 27%
    15:00 +18°C° 0 mm 2 mps 693 mmHg 26%
    16:00 +17°C° 0 mm 2 mps 693 mmHg 27%
    17:00 +17°C° 0 mm 2 mps 693 mmHg 28%
    18:00 +16°C° 0 mm 1 mps 692 mmHg 29%
    19:00 +15°C° 0 mm 1 mps 693 mmHg 32%
    20:00 +13°C° 0 mm 1 mps 693 mmHg 35%
    21:00 +12°C° 0 mm 1 mps 693 mmHg 39%
    22:00 +11°C° 0 mm 1 mps 693 mmHg 41%
    23:00 +11°C° 0 mm 1 mps 694 mmHg 43%

    Day after tomorrow, 27 April, Saturday

    Time Temperature Precipitation Wind Pressure Humidity
    00:00 +10°C° 0 mm 1 mps 694 mmHg 46%
    01:00 +10°C° 0 mm 1 mps 693 mmHg 48%
    02:00 +9°C° 0 mm 1 mps 693 mmHg 50%
    03:00 +9°C° 0 mm 1 mps 693 mmHg 52%
    04:00 +9°C° 0 mm 1 mps 693 mmHg 52%
    05:00 +9°C° 0 mm 1 mps 693 mmHg 53%
    06:00 +9°C° 0 mm 1 mps 693 mmHg 53%
    07:00 +11°C° 0 mm 1 mps 693 mmHg 46%
    08:00 +13°C° 0 mm 1 mps 693 mmHg 39%
    09:00 +14°C° 0 mm 1 mps 693 mmHg 32%
    10:00 +15°C° 0 mm 2 mps 692 mmHg 30%
    11:00 +17°C° 0 mm 2 mps 692 mmHg 28%
    12:00 +18°C° 0 mm 2 mps 692 mmHg 26%
    13:00 +18°C° 0 mm 2 mps 692 mmHg 26%
    14:00 +19°C° 0 mm 3 mps 691 mmHg 25%
    15:00 +19°C° 0 mm 3 mps 691 mmHg 24%
    16:00 +18°C° 0 mm 3 mps 691 mmHg 26%
    17:00 +18°C° 0 mm 3 mps 691 mmHg 27%
    18:00 +17°C° 0 mm 2 mps 691 mmHg 29%
    19:00 +16°C° 0 mm 2 mps 691 mmHg 30%
    20:00 +14°C° 0 mm 2 mps 691 mmHg 30%
    21:00 +13°C° 0 mm 2 mps 691 mmHg 31%
    22:00 +13°C° 0 mm 2 mps 691 mmHg 32%
    23:00 +12°C° 0 mm 2 mps 691 mmHg 32%

    28 April, Sunday

    Time Temperature Precipitation Wind Pressure Humidity
    00:00 +12°C° 0 mm 1 mps 691 mmHg 33%
    01:00 +11°C° 0 mm 1 mps 691 mmHg 34%
    02:00 +11°C° 0 mm 1 mps 690 mmHg 36%
    03:00 +10°C° 0 mm 1 mps 690 mmHg 37%
    04:00 +10°C° 0 mm 2 mps 690 mmHg 39%
    05:00 +10°C° 0 mm 2 mps 690 mmHg 40%
    06:00 +10°C° 0 mm 2 mps 690 mmHg 42%
    07:00 +13°C° 0 mm 2 mps 690 mmHg 39%
    08:00 +14°C° 0 mm 2 mps 690 mmHg 35%
    09:00 +16°C° 0 mm 2 mps 690 mmHg 31%
    10:00 +17°C° 0 mm 2 mps 690 mmHg 31%
    11:00 +18°C° 0 mm 2 mps 690 mmHg 30%
    12:00 +20°C° 0 mm 2 mps 689 mmHg 29%
    13:00 +20°C° 0 mm 2 mps 689 mmHg 28%
    14:00 +21°C° 0 mm 3 mps 689 mmHg 28%
    15:00 +21°C° 0 mm 3 mps 689 mmHg 28%
    16:00 +21°C° 0 mm 3 mps 688 mmHg 30%
    17:00 +20°C° 0 mm 3 mps 688 mmHg 32%
    18:00 +19°C° 0 mm 3 mps 688 mmHg 34%
    19:00 +18°C° 0 mm 3 mps 689 mmHg 36%
    20:00 +17°C° 0 mm 2 mps 689 mmHg 39%
    21:00 +15°C° 0 mm 2 mps 689 mmHg 42%
    22:00 +15°C° 0 mm 2 mps 689 mmHg 44%
    23:00 +14°C° 0 mm 1 mps 689 mmHg 46%

    29 April, Monday

    Time Temperature Precipitation Wind Pressure Humidity
    00:00 +14°C° 0 mm 1 mps 689 mmHg 48%
    01:00 +13°C° 0.1 mm 1 mps 689 mmHg 50%
    02:00 +13°C° 0.1 mm 1 mps 689 mmHg 51%
    03:00 +13°C° 0.1 mm 1 mps 689 mmHg 53%
    04:00 +13°C° 0.1 mm 1 mps 689 mmHg 54%
    05:00 +13°C° 0.1 mm 1 mps 689 mmHg 54%
    06:00 +13°C° 0.1 mm 2 mps 690 mmHg 55%
    07:00 +15°C° 0 mm 2 mps 690 mmHg 52%
    08:00 +17°C° 0 mm 2 mps 690 mmHg 48%
    09:00 +18°C° 0 mm 2 mps 690 mmHg 44%
    10:00 +19°C° 0.1 mm 2 mps 689 mmHg 42%
    11:00 +20°C° 0.1 mm 2 mps 689 mmHg 40%
    12:00 +21°C° 0.1 mm 3 mps 689 mmHg 37%
    13:00 +22°C° 0.2 mm 3 mps 689 mmHg 37%
    14:00 +22°C° 0.2 mm 3 mps 688 mmHg 36%
    15:00 +22°C° 0.2 mm 3 mps 688 mmHg 35%
    16:00 +22°C° 0.2 mm 3 mps 688 mmHg 37%
    17:00 +21°C° 0.2 mm 3 mps 688 mmHg 40%
    18:00 +20°C° 0.2 mm 3 mps 688 mmHg 42%
    19:00 +19°C° 0.1 mm 3 mps 688 mmHg 45%
    20:00 +18°C° 0.1 mm 3 mps 688 mmHg 49%
    21:00 +16°C° 0.1 mm 3 mps 689 mmHg 52%
    22:00 +16°C° 0.1 mm 3 mps 688 mmHg 52%
    23:00 +14°C° 0.1 mm 3 mps 688 mmHg 53%

    30 April, Tuesday

    Time Temperature Precipitation Wind Pressure Humidity
    00:00 +14°C° 0.1 mm 3 mps 688 mmHg 53%
    01:00 +15°C° 0.1 mm 2 mps 688 mmHg 55%
    02:00 +14°C° 0.1 mm 2 mps 688 mmHg 56%
    03:00 +14°C° 0.1 mm 2 mps 688 mmHg 57%
    04:00 +14°C° 0 mm 2 mps 689 mmHg 58%
    05:00 +14°C° 0 mm 1 mps 689 mmHg 58%
    06:00 +14°C° 0 mm 1 mps 689 mmHg 59%
    07:00 +15°C° 0 mm 1 mps 689 mmHg 55%
    08:00 +17°C° 0 mm 2 mps 689 mmHg 50%
    09:00 +18°C° 0 mm 2 mps 690 mmHg 46%
    10:00 +19°C° 0 mm 2 mps 689 mmHg 42%
    11:00 +21°C° 0 mm 2 mps 689 mmHg 38%
    12:00 +23°C° 0 mm 2 mps 689 mmHg 33%
    13:00 +24°C° 0 mm 3 mps 689 mmHg 31%
    14:00 +24°C° 0 mm 3 mps 689 mmHg 29%
    15:00 +25°C° 0 mm 3 mps 688 mmHg 27%
    16:00 +24°C° 0.1 mm 3 mps 688 mmHg 29%
    17:00 +22°C° 0.1 mm 4 mps 688 mmHg 31%
    18:00 +22°C° 0.1 mm 4 mps 688 mmHg 33%
    19:00 +20°C° 0.1 mm 3 mps 688 mmHg 34%
    20:00 +19°C° 0.1 mm 3 mps 689 mmHg 36%
    21:00 +18°C° 0.1 mm 2 mps 689 mmHg 38%
    22:00 +17°C° 0.1 mm 2 mps 689 mmHg 38%
    23:00 +17°C° 0.1 mm 2 mps 689 mmHg 39%
    Show more